Flag for U.S.A. Weather past 2 weeks in Lynchburg, Virginia, U.S.A.

41 °F

Rain. Fog.

Feels Like: 41 °F
Forecast: 41 / 52 °F
Wind: No wind

Location: Lynchburg Regional Airport

Current Time: Dec 1, 2015 at 3:35:34 AM

Latest Report: Dec 1, 2015 at 1:54 AM

Visibility: 3 mi

Pressure: 30.18 "Hg

Humidity: 100%

Dew point: 41 °F

Location of LynchburgLocation

Historic Weather in Lynchburg — Graph


Lynchburg temperature yesterday

Maximum temperature yesterday: 46 °F (at 12:54 AM)
Minimum temperature yesterday: 38 °F (at 6:54 AM)
Average temperature yesterday: 40 °F

Past Weeks' High & Low Weather Summary

High69 °F (Nov 19, 2:54 PM)100% (Nov 19, 1:54 AM)30.80 "Hg (Nov 19, 1:54 AM)
Low26 °F (Nov 24, 6:54 AM)18% (Nov 20, 3:54 PM)29.91 "Hg (Nov 22, 2:54 AM)
Average47 °F70%30.29 "Hg
* Reported Nov 16 1:54 AM — Dec 1 1:54 AM, Lynchburg, Weather by CustomWeather, © 2015

Note: Actual official high and low records may vary slightly from our data, if they occured in-between our weather recording intervals... More about our weather records


Lynchburg weather history for previous 24 hours

Time TempWeatherWind HumidityBarometerVisibility
1:54 AM
Tue, Dec 1
41 °FRain. Fog.No wind100%30.18 "Hg3 mi
12:54 AM41 °FLight rain. Fog.5 mph96%30.19 "Hg5 mi
11:54 PM
Mon, Nov 30
41 °FFog.No wind100%30.20 "Hg5 mi
11:03 PM40 °FMostly cloudy.5 mph100%30.21 "Hg9 mi
9:54 PM40 °FFog.3 mph97%30.24 "Hg5 mi
9:01 PM40 °FLight rain. Fog.5 mph97%30.24 "Hg5 mi
8:54 PM40 °FLight rain. Fog.7 mph97%30.25 "Hg4 mi
7:54 PM40 °FLight rain. Fog.7 mph97%30.26 "Hg3 mi
6:54 PM40 °FLight rain. Fog.7 mph97%30.26 "Hg5 mi
5:54 PM39 °FLight rain. Fog.6 mph100%30.26 "Hg3 mi
4:54 PM40 °FLight rain. Fog.6 mph97%30.26 "Hg4 mi
4:01 PM40 °FLight rain. Fog.7 mph97%30.24 "Hg4 mi
2:54 PM40 °FLight rain. Fog.9 mph97%30.25 "Hg4 mi
1:54 PM40 °FLight rain. Fog.8 mph97%30.25 "Hg5 mi
12:54 PM40 °FLight rain. Fog.9 mph97%30.27 "Hg4 mi
11:54 AM39 °FLow clouds.7 mph96%30.31 "Hg9 mi
10:54 AM39 °FLight rain. Fog.10 mph96%30.33 "Hg6 mi
9:54 AM38 °FLight rain. Fog.13 mph97%30.33 "Hg6 mi
8:54 AM38 °FLight rain. Fog.13 mph97%30.32 "Hg3 mi
7:54 AM38 °FLight rain. Fog.13 mph97%30.31 "Hg4 mi
6:54 AM38 °FLow clouds.17 mph97%30.30 "Hg7 mi
5:54 AM39 °FLight rain. Fog.13 mph96%30.28 "Hg6 mi
4:54 AM40 °FLight rain. Fog.14 mph97%30.28 "Hg6 mi
3:54 AM42 °FLight rain. Low clouds.17 mph96%30.26 "Hg8 mi
Weather by CustomWeather, © 2015

See weather overviewHow to use our weather pages